www.pogodaiklimat.ru

Погода и климат >> Архив погоды >> Монголия >> Цогт-Овоо


ПОГОДА в Цогт-Овоо

  • Прогноз погоды в Цогт-Овоо
  • Монитор погоды в Цогт-Овоо

АРХИВ ПОГОДЫ в Цогт-Овоо

Время (UTC), дата Ветер
(напр.,м/с)
 
Видим.   Явления Облачность Т
(С)
Тd
(С)
f
(%)
Тe
(С)
Тes
(С)
Комфортность P
(гПа)
Po
(гПа)
Тmin
(С)
Tmax
(С)
R
(мм)
R24
(мм)
S
(см)
00 12.06 СВ 10 50 км 5/1 600 м
[Cb calv Ac As Ci fib]
+19.7 +4.3 36 +19 +19 1009.5 867.7 +17.6
03 12.06 СВ 9 50 км 5/0
[Ac cast Ci]
+21.3 +6.8 39 +22 +23 комфорт 1010.5 869.2
06 12.06 СВ 6 50 км 4/1 600 м
[Cb calv Cs]
+25.9 +3.9 24 +25 +31 комфорт 1006.8 868.0
09 12.06 СВ 8 50 км 8/1 1000 м
[Cu hum Cs]
+26.2 +3.4 23 +25 +26 комфорт 1005.9 867.4
12 12.06 В 7 50 км 5/1 1000 м
[Cu hum Ac lent Cs]
+23.3 +2.0 25 +23 +23 комфорт 1008.1 868.0 +27.0
15 12.06 В 6 50 км 3/0
[Ac lent]
+19.5 +1.1 29 +19 +19 1011.5 869.3
18 12.06 В 2 50 км 4/0
[Ac lent Cs]
+17.0 +0.1 32 +17 +17 1013.0 869.4
21 12.06 СВ 4 50 км 3/0
[Cs]
+14.5 -0.5 36 +14 +14 1014.7 869.8
00 13.06 В 5 50 км 5/0
[Cs]
+19.7 +1.5 30 +20 +22 1012.6 870.4 +14.4
03 13.06 ЮВ 4 50 км 1/0
[Ci fib]
+22.9 -0.5 21 +22 +32 комфорт 1010.4 869.8
06 13.06 ЮВ 4 50 км 5/0
[Cs]
+26.1 -0.5 17 +24 +35 комфорт 1006.6 868.0
09 13.06 СВ 2 50 км 1/0
[Ci fib]
+27.0 +0.5 18 +25 +33 комфорт 1004.1 866.2
12 13.06 В 3 50 км 3/0
[Cs]
+26.0 -1.3 17 +24 +24 комфорт 1004.4 866.0 +28.1
15 13.06 В 6 50 км 6/0
[Cs]
+21.3 -4.7 17 +20 +20 1006.9 866.2
18 13.06 В 6 50 км 8/0
[Cs]
+19.3 -3.6 21 +19 +19 1007.5 865.7
21 13.06 В 4 50 км 8/0
[Cs]
+16.2 -3.6 25 +16 +16 1008.1 864.8
00 14.06 ЮВ 8 50 км 8/0
[Cs]
+21.5 -2.0 21 +21 +21 комфорт 1005.3 864.9 +16.2
03 14.06 ЮВ 9 50 км 9/0
[Cs]
+26.3 -2.7 15 +24 +25 комфорт 1001.9 864.0
06 14.06 ЮВ 7 50 км 9/0
[Ac lent Cs]
+29.3 -4.7 11 +26 +29 жарко 998.1 862.0
09 14.06 Ю 6 50 км 10/0
[Ac As]
+30.0 -3.2 11 +27 +28 жарко 995.9 860.4
12 14.06 Ю 3 50 км 10/0
[As op]
+27.8 -0.9 15 +25 +25 комфорт 996.9 860.3 +30.7
15 14.06 З 8 н/о 10/10 600 м
[Sc As op]
+17.4 +13.6 78 +16 +16 1005.1 862.8
18 14.06 ЮВ 4 н/о {дождь} 10/10 600 м
[Sc As op]
+16.8 +15.4 91 +16 +16 1003.6 861.3
21 14.06 штиль 0 50 км 10/6 1000 м
[Sc As op]
+16.7 +15.0 90 +17 +17 1003.3 860.9
00 15.06 З 7 50 км 4/0
[Cs]
+17.4 +10.2 63 +16 +18 1003.1 861.2 +15.3 1
03 15.06 З 6 50 км 4/0
[Cs]
+22.9 +8.3 39 +24 +30 комфорт 999.7 860.6
06 15.06 З 7 50 км 8/4 1000 м
[Cu med, cong Cs]
+26.4 +1.5 20 +25 +27 комфорт 996.6 859.5
09 15.06 СЗ 11 50 км 8/4 1000 м
[Cu med, cong Cs]
+26.5 +2.2 21 +25 +25 комфорт 995.5 858.5
12 15.06 З 10 50 км 8/8 600 м
[Cb cap]
+24.9 +2.2 23 +24 +24 комфорт 996.6 858.7 +27.6
15 15.06 СЗ 3 50 км 1/0
[Ac lent]
+19.8 +0.7 28 +20 +20 1000.3 859.8
18 15.06 штиль 0 50 км 8/4 1000 м
[Sc As op]
+18.0 +2.8 36 +18 +18 1000.9 859.5
21 15.06 З 2 50 км 8/4 1000 м
[Sc As op]
+14.7 +5.6 54 +15 +15 1002.8 859.6
00 16.06 З 2 50 км 8/0
[Ac trans]
+18.0 +5.2 43 +19 +21 1001.7 860.2 +14.2
03 16.06 ЮЗ 4 50 км 3/3 1000 м
[Cu med, cong]
+23.5 +4.2 28 +23 +31 комфорт 998.8 860.1
06 16.06 З 7 50 км 8/5 1000 м
[Cu med, cong Cs]
+25.5 +3.0 23 +24 +27 комфорт 996.5 859.0
09 16.06 З 8
{13}
50 км 8/6 600 м
[Cb calv Cs]
+27.2 +1.7 19 +25 +26 комфорт 993.9 857.5
12 16.06 СЗ 7 50 км 8/6 600 м
[Cb calv Cs]
+25.2 +3.5 24 +24 +24 комфорт 996.1 858.5 +28.6
15 16.06 СВ 5 50 км 8/3 600 м
[Cb calv Ac cuf]
+21.9 +5.9 35 +22 +22 комфорт 999.8 860.2
18 16.06 В 3 50 км 4/4 1000 м
[Sc]
+18.8 +7.6 48 +19 +19 1001.4 860.2
21 16.06 С 4 50 км 3/0
[Ac lent]
+16.6 +7.8 56 +16 +16 1003.7 861.3
00 17.06 З 1 50 км ясно +19.0 +8.0 49 +21 +26 комфорт 1004.0 862.6 +15.7
03 17.06 С 3 50 км 1/1 1000 м
[Cu hum]
+23.2 +8.7 40 +25 +37 комфорт 1002.9 863.5
06 17.06 СЗ 4 50 км 8/8 600 м
[Cb calv]
+27.1 +6.5 27 +26 +29 жарко 1000.7 863.3
09 17.06 СЗ 6 50 км 4/3 1000 м
[Cu med, cong Ci fib]
+28.7 +4.0 21 +27 +29 жарко 998.6 862.2
12 17.06 СЗ 4 50 км 1/1 600 м
[Cb calv]
+26.8 +3.5 22 +25 +26 комфорт 1000.4 862.9 +28.9
15 17.06 В 5 50 км ясно +22.6 +4.3 30 +23 +23 комфорт 1003.8 864.1
18 17.06 В 4 50 км ясно +19.1 +7.8 48 +20 +20 1006.4 864.7
21 17.06 СВ 4 50 км ясно +16.7 +6.2 50 +16 +16 1007.7 864.8
00 18.06 СВ 4 50 км ясно +20.8 +8.2 44 +22 +25 комфорт 1007.2 866.2 +16.2
03 18.06 В 5 50 км ясно +26.8 +7.9 30 +27 +35 жарко 1004.6 866.6
06 18.06 В 4 50 км 3/3 1000 м
[Cu hum]
+29.8 +6.0 22 +28 +37 жарко 1001.8 865.4
09 18.06 В 3 50 км 4/3 1000 м
[Cu med, cong Ci fib]
+30.2 +4.7 20 +28 +33 жарко 1000.5 864.5
12 18.06 В 6 50 км 9/3 600 м
[Cb calv Cs]
+28.5 +5.1 23 +27 +27 жарко 1001.9 865.0 +30.9
15 18.06 В 6 50 км 8/8 600 м
[Cb cap]
+25.5 +5.2 27 +25 +25 комфорт 1005.5 866.8
18 18.06 В 7 50 км 8/3 1000 м
[Sc Ac As]
+22.7 +3.1 28 +23 +23 комфорт 1006.3 866.2
21 18.06 В 3 50 км 9/0
[Ac As]
+20.9 +1.8 28 +22 +22 комфорт 1007.8 866.7

 

Местоположение метеостанции Цогт-Овоо (Монголия): широта 44.42 долгота 105.31 высота над уровнем моря 1298 м.

В архиве по умолчанию представлена погода в Цогт-Овоо за последнюю неделю. Архивные данные за месяц целиком и за предыдущие месяцы, начиная с января 2011 года, Вы можете получить, выбрав интересующий диапазон дат из раскрывающегося списка и нажав кнопку "Ввод!".


*Определитесь, кто Вы:
робот инопланетянин человек

Внимание! Время в таблицах - всемирное. Для получения местного времени необходимо прибавить поправку, которая равна 8 ч.

Смотрите также архив погоды в соседних городах и на ближайших метеорологических станциях:

Погода в Даланзадгаде (Монголия) (118 км)
Погода на Баян Добо Сума (Монголия) (149 км)
Погода в Сайкхан-Ову (Монголия) (160 км)
Погода в Мандалгоби (Монголия) (168 км)
Погода в Ханбогде (Монголия) (201 км)
Погода в Богде (Монголия) (251 км)
Погода в Арвайхээре (Монголия) (285 км)
Погода в Бат Олжий Вунд (Монголия) (307 км)
Погода в Чойре (Монголия) (320 км)
Погода в Хужирте (Монголия) (340 км)

Пояснения к столбцам:

Ветер - указаны скорость ветра в м/с - средняя за 10 мин, порывы в срок и между сроками (в фигурных скобках) и направление, откуда дует ветер: С - северный, СВ - северо-восточный, В - восточный, ЮВ - юго-восточный, Ю - южный, ЮЗ - юго-западный, З - западный, СЗ - северо-западный.
Видимость - горизонтальная дальность видимости в метрах или километрах. При видимости от 1 до 10 км при отсутствии осадков обычно наблюдается дымка, при ухудшении видимости до 1 км и менее - туман. В сухую погоду видимость может ухудшаться дымом, пылью или мглою.
Явления - указаны атмосферные явления, наблюдавшиеся в срок или в последний час перед сроком; фигурными скобками обозначены явления, наблюдавшиеся между сроками (за 1-3 часа до срока); квадратными скобками обозначены град или гололедные отложения с указанием их диаметра в мм.
Облачность - указаны через наклонную черту общая и нижняя облачность в баллах и высота нижней границы облаков в метрах; квадратными скобками обозначены формы облаков: Ci - перистые, Cs - перисто-слоистые, Cc - перисто-кучевые, Ac - высококучевые, As - высокослоистые, Sc - слоисто-кучевые, Ns - слоисто-дождевые, Cu - кучевые, Cb - кучево-дождевые. Подробнее классификацию облаков см. в Атласе облаков (PDF).
T - Температура воздуха - температура, измеренная на высоте 2 м над землей.
Td - Температура точки росы - температура, при понижении до которой содержащийся в воздухе водяной пар достигнет насыщения.
f - Относительная влажность воздуха - влажноcть воздуха, измеренная на высоте 2 м над землей.
Te - Эффективная температура - температура, которую ощущает одетый по сезону человек в тени. Характеристика душности погоды. При расчете учитывается влияние влажности воздуха и скорости ветра на теплоощущения человека.
Tes - Эффективная температура на солнце - температура, которую ощущает человек, с поправкой на солнечный нагрев. Характеристика знойности погоды. Зависит от высоты солнца над горизонтом, облачности и скорости ветра. Ночью, в пасмурную погоду, а также при ветре 12 м/с и более поправка равна нулю.
P - Атмосферное давление - приведенное к уровню моря атмосферное давление.
Po - Атмосферное давление - измеренное на уровне метеостанции атмосферное давление.
Tmin - Минимальная температура - минимум температуры воздуха на высоте 2 м над землей.
Tmax - Максимальная температура - максимум температуры воздуха на высоте 2 м над землей.
R - Количество осадков - Количество выпавших осадков за период времени, мм. При наведении курсора мыши на число - период времени, за который выпало указанное количество осадков.
R24 - Количество осадков - Количество выпавших осадков за 24 часа, мм.
S - Снежный покров - Высота снежного покрова, см. При наведении курсора мыши на число - состояние снежного покрова и степень покрытия местности в баллах.